Regional Weather Roundup
Issued by NWS

Home | Current Version | Previous Version | Text Only | Print | Product List | Glossary On
Versions: 1 2 3 4 5 6 7 8 9 10 11 12 13 14 15 16 17 18 19 20 21 22 23 24 25 26 27
000
ASUS45 KBOU 290707
RWRCO

WEATHER ROUNDUP FOR COLORADO
NATIONAL WEATHER SERVICE DENVER/BOULDER CO
100 AM MDT WED MAR 29 2017

NOTE: "FAIR" INDICATES FEW OR NO CLOUDS BELOW 12000 FEET WITH NO
SIGNIFICANT WEATHER AND/OR OBSTRUCTIONS TO VISIBILITY.

COZ001>005-013-030-031-290800-
...NORTHWEST COLORADO...

CITY           SKY/WX    TMP DP  RH WIND       PRES   REMARKS
CRAIG          FAIR      36  27  69 CALM      30.11S
HAYDEN         FAIR      30  25  80 SW6       30.09S WCI  24
MEEKER         FAIR      34  29  82 N5        30.10S WCI  30
MOUNT WERNER   NOT AVBL
STEAMBOAT SPGS FAIR      33  31  93 CALM      30.07F
WALDEN         NOT AVBL
$$

COZ006>008-011-290800-
...WEST CENTRAL VALLEYS...

CITY           SKY/WX    TMP DP  RH WIND       PRES   REMARKS
GRAND JUNCTION FAIR      41  34  76 NW12      30.02F
MONTROSE       FAIR      41  32  70 N6        30.00F
EAGLE          FAIR      36  31  82 E7        30.06S
RIFLE          FAIR      40  31  70 W7        30.03F
DELTA          FAIR      44  34  66 N3        29.95F
NUCLA          FAIR      43  30  61 N13       30.00S
$$

COZ017>023-064>068-290800-
...SOUTHWEST COLORADO...

CITY           SKY/WX    TMP DP  RH WIND       PRES   REMARKS
DURANGO        FAIR      37  34  89 NE3       29.85S
CORTEZ         FAIR      44  31  60 N10       29.90S
PAGOSA SPRINGS FAIR      37  35  93 N3        29.85F
TELLURIDE      LGT SNOW  33  29  83 CALM      29.97S
WOLF CREEK PAS CLOUDY    21  21 100 MISG      29.96F
$$

COZ009-010-012-014-032>034-037-058>063-290800-
...CENTRAL COLORADO...

CITY           SKY/WX    TMP DP  RH WIND       PRES   REMARKS
ASPEN          CLOUDY    35  29  78 NW3       30.01S
BUENA VISTA    CLOUDY    36  31  82 NW5       29.98F
COPPER MTN     CLOUDY    25  19  80 MISG      30.06F
BERTHOUD PASS  HAZE      18   5  57 E3        30.09S VSB<1/4
COTTONWOOD PAS CLOUDY    32  30  93 E5        30.02S WCI  27
GUNNISON       MOCLDY    34  34 100 CALM      29.98R
KREMMLING      FAIR      39  32  75 NW10      30.07R
LEADVILLE      CLOUDY    27  22  81 N14       30.02R WCI  16
MONARCH PASS   CLOUDY    23  21  93 NE35G47   30.05R WCI   4
SALIDA         CLOUDY    37  36  95 CALM      30.05F
SUNLIGHT       MOCLDY   N/A N/A N/A NE9       30.11S
WILKERSON PASS LGT SNOW N/A N/A N/A NE12G24   30.05F
$$

COZ069>075-290800-
...SAN LUIS VALLEY/SANGRE DE CRISTO MOUNTAINS...

CITY           SKY/WX    TMP DP  RH WIND       PRES   REMARKS
ALAMOSA        CLOUDY    37  33  85 N13       29.87S
LA VETA PASS   NOT AVBL
SAGUACHE       CLOUDY    39  28  65 NW10      29.92F
$$

COZ035-036-038>040-290800-
...NORTHERN COLORADO FRONT RANGE...

CITY           SKY/WX    TMP DP  RH WIND       PRES   REMARKS
DENVER INTL AP FOG       35  35 100 N13       30.07R VSB 1/4 WCI  26
DMNS CITY PARK   N/A     36  36  99 MISG      30.07F
AURORA         NOT AVBL
FRONT RANGE AP CLOUDY    36  36 100 N10       30.08R FOG
ERIE MUNI ARPT CLOUDY    39  37  92 NE6       30.08R
BOULDER MUN AP CLOUDY    37  36  93 NE6       30.10R
CENTENNIAL     LGT SNOW  33  32  96 N10       30.06F VSB 1   WCI  25
BROOMFIELD     CLOUDY    37  36  93 NE8       30.08R
FORT COLLINS   MOCLDY    39  35  86 E10       30.09R
LONGMONT       CLOUDY    41  37  86 E6        30.12R
$$

COZ041-046-047-076>085-087-088-290800-
...PIKES PEAK/PALMER DIVIDE AND SOUTHERN FOOTHILLS...

CITY           SKY/WX    TMP DP  RH WIND       PRES   REMARKS
COLO. SPRINGS  LGT RAIN  37  31  78 N28G44    29.96F
A. F. ACADEMY  NOT AVBL
SCHRIEVER AFB  LGT RAIN  36  32  87 N29G38    29.94
ELLICOTT       MIX PCPN N/A N/A N/A E15       29.95F
FALCON         LGT SNOW  33  32  95 N26G44    29.96F WCI  20
FORT CARSON    MOCLDY    40  32  75 N31G44    29.94F
LIMON          LGT SNOW  32  32 100 N12       30.01S FOG     WCI  23
MONUMENT HILL  LGT SNOW  30  30 100 N16       30.04R WCI  19
TRINIDAD       LGT RAIN  38  36  92 NE16      29.92R FOG
$$

COZ042>045-048>051-090-091-290800-
...NORTHEAST COLORADO...

CITY           SKY/WX    TMP DP  RH WIND       PRES   REMARKS
GREELEY ARPT   CLOUDY    39  36  89 N8        30.11R
AKRON          LGT RAIN  37  35  92 NE8       30.05F
BURLINGTON     LGT RAIN  39  39 100 NE15      29.99F FOG
WRAY           NOT AVBL
STERLING       CLOUDY    39  37  93 NE9       30.08R FOG
HOLYOKE        DRIZZLE   41  37  87 NE9       30.09R
FORT MORGAN    CLOUDY    37  36  94 NE8       30.09R
$$

COZ086-089-092>099-290800-
...SOUTHEAST COLORADO...

CITY           SKY/WX    TMP DP  RH WIND       PRES   REMARKS
PUEBLO         LGT RAIN  41  39  93 E10       29.96F FOG
LA JUNTA       LGT RAIN  41  39  93 NE16      29.95R FOG
LAMAR          CLOUDY    40  38  93 NE15      29.93F
SPRINGFIELD      N/A     38  38 100 NE24G31   29.88F
$$




USA.gov is the U.S. government's official web portal to all federal, state and local government web resources and services.